This is the latest recevied weather packets stored in our database for station/object IW3HBX-3. If no packets are shown the sender has not sent any weather packets the latest 1 day(s).
| Time | Temp. | Humidity | Pressure | Rain* | Wind** | Luminosity | Snow |
|---|---|---|---|---|---|---|---|
| 1788623968 | 32.22° C | 43% | 1016.2 hPa | 0 mm | - | 136 W/m² | - |
| 1788623667 | 31.67° C | 43% | 1016.3 hPa | 0 mm | - | 152 W/m² | - |
| 1788623492 | 32.22° C | 42% | 1016.2 hPa | 0 mm | - | 166 W/m² | - |
| 1788623368 | 32.22° C | 42% | 1016.2 hPa | 0 mm | - | 166 W/m² | - |
| 1788623067 | 32.22° C | 42% | 1016.2 hPa | 0 mm | - | 183 W/m² | - |
| 1788622767 | 32.78° C | 41% | 1016.2 hPa | 0 mm | - | 194 W/m² | - |
| 1788622466 | 33.89° C | 42% | 1016.1 hPa | 0 mm | - | 207 W/m² | - |
| 1788622166 | 32.78° C | 43% | 1016.2 hPa | 0 mm | - | 223 W/m² | - |
| 1788621866 | 31.67° C | 44% | 1016.1 hPa | 0 mm | - | 193 W/m² | - |
| 1788621566 | 32.22° C | 43% | 1016.1 hPa | 0 mm | - | 150 W/m² | - |
| 1788621266 | 32.22° C | 45% | 1016 hPa | 0 mm | - | 239 W/m² | - |
| 1788620966 | 32.78° C | 42% | 1016.1 hPa | 0 mm | - | 274 W/m² | - |
| 1788620666 | 33.33° C | 42% | 1016.1 hPa | 0 mm | - | 296 W/m² | - |
| 1788620366 | 32.78° C | 43% | 1016.1 hPa | 0 mm | - | 312 W/m² | - |
| 1788620066 | 32.78° C | 44% | 1016.1 hPa | 0 mm | - | 321 W/m² | - |
| 1788619766 | 32.78° C | 44% | 1016.1 hPa | 0 mm | - | 335 W/m² | - |
| 1788619466 | 32.22° C | 45% | 1016 hPa | 0 mm | - | 359 W/m² | - |
| 1788619165 | 33.33° C | 44% | 1016.1 hPa | 0 mm | - | 373 W/m² | - |
| 1788618865 | 33.33° C | 45% | 1016.2 hPa | 0 mm | - | 385 W/m² | - |
| 1788618565 | 33.33° C | 44% | 1016.1 hPa | 0 mm | - | 397 W/m² | - |
| 1788618265 | 32.78° C | 43% | 1016.1 hPa | 0 mm | - | 415 W/m² | - |
| 1788617965 | 32.22° C | 45% | 1016.1 hPa | 0 mm | - | 433 W/m² | - |
| 1788617665 | 31.67° C | 46% | 1016.2 hPa | 0 mm | - | 445 W/m² | - |
| 1788617365 | 31.67° C | 46% | 1016.1 hPa | 0 mm | - | 466 W/m² | - |
| 1788617065 | 31.11° C | 48% | 1016.2 hPa | 0 mm | - | 464 W/m² | - |
* Rain latest hour (hover to see other rain measurements)
** Current wind speed in m/s (hover to see current wind gust speed)